Location: Julian California
(33.0790°N, 116.6010°W)
Time: 23:45:19
(UTC-08:00)

Daily predictions for brighter satellites

Satellite Brightness Start Highest point End
(mag) Time Altitude Azimuth Time Altitude Azimuth Time Altitude Azimuth
Cosmos 1386 Rocket 4.5 17:52:00 10° N 17:58:12 81° E 18:04:16 10° S
CZ-4 R/B 4.4 17:55:59 10° SSE 18:00:06 71° ENE 18:04:13 10° N
Cosmos 1782 2.8 17:56:53 10° N 18:00:52 85° E 18:04:51 10° S
Lacrosse 5 4.4 17:59:29 10° WNW 18:01:39 13° NNW 18:03:50 10° N
Cosmos 1898 Rocket 3.7 17:56:31 10° NNW 18:01:42 76° WSW 18:06:50 10° S
CZ-4 R/B 1.3 17:58:41 10° SSE 18:02:32 89° E 18:06:28 10° NNW
NOAA 12 4.2 18:01:36 10° SSE 18:06:52 85° WSW 18:12:11 10° NNW
Cosmos 2263 Rocket 3.5 18:06:29 10° SW 18:11:50 42° WNW 18:17:12 10° N
FengYun 1-2 T 4.3 18:09:47 10° SSE 18:15:18 63° ENE 18:20:48 10° N
SL-08 ROCKET BODY 4.4 18:11:12 10° N 18:17:22 72° E 18:23:31 10° SSE
COSMOS 2455 3.8 18:16:28 10° N 18:21:32 27° NE 18:26:12 11° ESE
Cosmos 1633 2.8 18:18:11 10° SSE 18:21:39 45° E 18:25:08 10° NNE
NOSS 2-1 (E) 3.0 18:18:49 10° SSW 18:22:23 62° ESE 18:25:58 10° NE
Cosmos 2150 Rocket 4.0 18:18:51 10° N 18:24:06 62° ENE 18:29:24 10° SSE
SJ 16-02 1.3 18:21:20 10° N 18:25:45 69° ENE 18:30:06 10° SSE
Ariane Rocket 3.0 18:21:06 10° SSE 18:26:11 84° ENE 18:31:17 10° NNW
GEOS 3 Rocket 3.9 18:20:57 10° SSE 18:26:13 75° WSW 18:31:28 10° NW
H-2A R/B 4.4 18:23:05 10° SSW 18:26:28 36° W 18:29:54 10° NNW
Cosmos 372 Rocket 4.5 18:21:40 10° N 18:26:31 37° ENE 18:31:21 10° SE
Cosmos 1356 Rocket 3.8 18:23:37 10° N 18:27:21 38° E 18:31:07 10° SSE
Cosmos 1869 Rocket 3.9 18:27:28 10° SSE 18:31:35 41° E 18:35:46 10° NNE
Cosmos 1812 3.5 18:32:39 10° NNE 18:36:02 29° E 18:39:24 10° SE
Cosmos 1844 4.0 18:32:02 10° S 18:37:21 44° ESE 18:42:45 10° NE
Cosmos 1862 Rocket 4.5 18:33:51 10° NNW 18:38:07 52° W 18:42:20 10° S
Cosmos 2242 Rocket 4.2 18:37:12 10° NNW 18:41:31 59° W 18:45:49 10° S
NOSS 3-1 (A) 4.1 18:36:37 10° NNW 18:44:35 83° ENE 18:53:19 10° SSE
Cosmos 2084 Rocket 4.4 18:41:51 10° NW 18:45:51 46° WSW 18:49:46 10° S
YAOGAN 6 2.4 18:42:54 10° SSE 18:46:25 66° ENE 18:50:00 10° N
MOS 1 4.2 18:41:33 10° SSE 18:47:07 67° ENE 18:52:43 10° N
SJ-6B 4.4 18:53:42 21° NE 18:53:42 21° NE 18:55:34 10° NNE
Sakura Rocket 3.4 18:49:48 10° WSW 18:53:13 41° S 18:54:32 29° SE
Meteor 2-21 Rocket 4.3 18:49:00 10° N 18:55:04 76° E 19:01:05 10° S
CZ-2D R/B 3.0 18:52:35 10° SSE 18:56:22 75° ENE 19:00:09 10° N
Meteor 2-16 Rocket 4.3 18:52:47 10° N 18:58:53 66° E 19:04:58 10° SSE
Atlas Centaur 2 3.8 18:54:16 10° SSW 18:59:14 25° SSE 19:01:08 22° SE
Meteor 1-27 Rocket 4.2 19:00:54 10° NNW 19:06:31 64° W 19:12:14 10° S
Cosmos 2327 Rocket 4.5 19:04:49 10° N 19:10:48 54° E 19:16:51 10° SSE
Lacrosse 5 rocket 1.0 19:07:13 10° SW 19:10:57 86° NW 19:11:24 68° NNE
Meteor 1-14 Rocket 4.2 19:06:43 10° SSE 19:12:03 52° E 19:17:29 10° NNE
USA 234 4.4 19:08:59 10° SSE 19:15:04 40° SW 19:21:09 10° WNW
Cosmos 2278 Rocket 3.8 19:10:52 10° SSE 19:12:42 19° SSE 19:12:42 19° SSE
Cosmos 1844 Rocket 3.2 19:11:13 10° SSW 19:16:47 60° WNW 19:22:23 10° NNE
SPOT 3 Rocket 3.4 19:13:16 10° SSE 19:18:26 87° ENE 19:23:38 10° NNW
Cosmos 2074 Rocket 3.9 19:12:26 10° N 19:18:41 85° E 19:24:56 10° S
Tiangong 2 3.1 19:16:41 10° NW 19:18:13 23° NNW 19:18:13 23° NNW
Cosmos 2184 Rocket 3.9 19:14:54 10° N 19:21:18 86° E 19:27:37 10° S
Cosmos 1939 Rocket 3.1 19:27:18 63° WSW 19:27:31 65° W 19:31:21 10° NNW
Cosmos 2098 Rocket 3.9 19:23:30 10° N 19:30:06 77° W 19:35:21 10° S
Cosmos 2221 Rocket 4.2 19:26:35 10° N 19:29:49 47° N 19:29:49 47° N
Okean 1-7 4.0 19:28:36 10° NNW 19:32:42 45° W 19:36:44 10° SSW
Meteor 1-20 Rocket 4.3 19:33:55 10° SSW 19:39:23 74° W 19:44:58 10° N
CZ-4C R/B 2.0 19:35:28 10° SW 19:40:18 73° WNW 19:40:54 65° N
ATLAS 2AS CENTAUR R/B 4.4 19:41:33 10° N 19:45:18 19° NNE 19:45:18 19° NNE
COSMOS 2455 3.9 20:01:57 10° NW 20:07:31 41° WSW 20:09:29 32° SSW
Milstar 3 Cent rocket 3.9 20:06:14 10° WSW 20:08:39 21° SW 20:08:39 21° SW
Cosmos 2154 Rocket 4.3 20:05:36 10° NNW 20:11:50 63° W 20:11:59 63° W
Atlas Centaur 2 4.3 20:41:15 10° WSW 20:43:45 25° SW 20:43:45 25° SW
